Location: Pcim
(49.7500°N, 19.9670°E)
Time: 18:06:00
(UTC+02:00)

ZACube-1 - Pass Details

Date: 04 May 2024
Orbit: 566 x 635 km, 97.7° (Epoch: 28 May)

Event Time Altitude Azimuth Distance (km) Brightness Sun altitude
Rises 03:22:22 0° 17° (NNE) 2,946 ? -14.8°
Reaches altitude 10° 03:24:38 10° 23° (NNE) 2,035 ? -14.5°
Maximum altitude 03:28:58 51° 99° (E) 810 ? -14.1°
Drops below altitude 10° 03:33:15 10° 176° (S) 2,015 ? -13.6°
Enters shadow 03:33:19 10° 176° (S) 2,038 ? -13.6°
